GW2742 Weather Reports


time (UTC)temp
C
wind
direction
speed
KPH
gust
KPH
rain 1hr
cm
rain 24hr
cm
rain mn
cm
humidity
%
barometer
mb
20260906223524 27 347 1.6 4.8 0.00 0.00 0.00 38 1010.6
20260906223056 27 7 0.0 6.4 0.00 0.00 0.00 41 1010.6
20260906222526 27 19 0.0 6.4 0.00 0.00 0.00 41 1010.7
20260906222023 27 347 3.2 8.0 0.00 0.00 0.00 38 1010.7
20260906221548 28 0 3.2 9.7 0.00 0.00 0.00 40 1010.9
20260906221026 28 334 3.2 9.7 0.00 0.00 0.00 40 1010.9
20260906220043 28 20 1.6 8.0 0.00 0.00 0.00 44 1011.1
20260906214545 28 330 3.2 8.0 0.00 0.00 0.00 37 1011.2
20260906214026 28 15 1.6 8.0 0.00 0.00 0.00 36 1011.4
20260906213527 28 51 3.2 9.7 0.00 0.00 0.00 37 1011.5
20260906213046 28 343 3.2 9.7 0.00 0.00 0.00 38 1011.4
20260906212523 28 64 3.2 9.7 0.00 0.00 0.00 39 1011.6
20260906212023 28 0 3.2 11.3 0.00 0.00 0.00 39 1011.5
20260906211548 27 43 3.2 11.3 0.00 0.00 0.00 40 1011.5
20260906211026 27 36 3.2 11.3 0.00 0.00 0.00 41 1011.6
20260906210530 27 56 3.2 11.3 0.00 0.00 0.00 39 1011.7
20260906210053 27 0 1.6 12.9 0.00 0.00 0.00 43 1011.8
20260906205526 27 325 3.2 12.9 0.00 0.00 0.00 43 1011.9
20260906205023 27 54 6.4 12.9 0.00 0.00 0.00 40 1012.1
20260906204558 27 42 4.8 11.3 0.00 0.00 0.00 43 1012.2
20260906204025 27 44 3.2 11.3 0.00 0.00 0.00 43 1012.4
20260906203525 27 49 0.0 8.0 0.00 0.00 0.00 43 1012.5
20260906203044 26 1 4.8 8.0 0.00 0.00 0.00 45 1012.6
20260906202524 26 337 3.2 8.0 0.00 0.00 0.00 45 1012.5
20260906202024 26 328 1.6 8.0 0.00 0.00 0.00 46 1012.6
20260906201549 26 1 1.6 8.0 0.00 0.00 0.00 46 1012.6
20260906201024 26 36 3.2 11.3 0.00 0.00 0.00 50 1012.7
20260906200523 26 332 4.8 11.3 0.00 0.00 0.00 48 1012.9
20260906200052 26 342 0.0 11.3 0.00 0.00 0.00 52 1013.0
20260906195526 26 349 1.6 11.3 0.00 0.00 0.00 50 1013.1
20260906195028 26 338 4.8 11.3 0.00 0.00 0.00 48 1013.4
20260906194602 26 47 3.2 11.3 0.00 0.00 0.00 51 1013.6
20260906194025 25 346 3.2 12.9 0.00 0.00 0.00 48 1013.6
20260906193525 25 15 3.2 12.9 0.00 0.00 0.00 51 1013.6
20260906193043 25 342 3.2 12.9 0.00 0.00 0.00 49 1013.7
20260906192524 25 17 3.2 12.9 0.00 0.00 0.00 50 1013.9
20260906192029 25 335 3.2 12.9 0.00 0.00 0.00 53 1013.9
20260906191546 25 41 3.2 11.3 0.00 0.00 0.00 50 1014.0
20260906191025 25 23 3.2 11.3 0.00 0.00 0.00 52 1014.0
20260906190527 25 330 3.2 11.3 0.00 0.00 0.00 54 1014.1
20260906190049 25 347 3.2 9.7 0.00 0.00 0.00 50 1014.3
20260906185525 25 360 1.6 8.0 0.00 0.00 0.00 54 1014.5
20260906185025 25 349 1.6 8.0 0.00 0.00 0.00 59 1014.5
20260906184546 25 350 1.6 8.0 0.00 0.00 0.00 52 1014.6
20260906184027 24 253 0.0 8.0 0.00 0.00 0.00 51 1014.7
20260906183525 24 82 3.2 8.0 0.00 0.00 0.00 50 1014.9
20260906183058 24 65 3.2 6.4 0.00 0.00 0.00 52 1014.9
20260906182525 23 273 3.2 9.7 0.00 0.00 0.00 53 1015.1
20260906182026 23 77 4.8 9.7 0.00 0.00 0.00 52 1015.1
20260906181547 24 39 4.8 8.0 0.00 0.00 0.00 51 1015.2
20260906181024 23 13 1.6 8.0 0.00 0.00 0.00 53 1015.4
20260906180528 23 321 1.6 6.4 0.00 0.00 0.00 53 1015.5
20260906175530 23 294 1.6 8.0 0.00 0.00 0.00 56 1015.7
20260906175026 23 242 3.2 6.4 0.00 0.00 0.00 54 1015.7
20260906174609 23 359 1.6 6.4 0.00 0.00 0.00 57 1015.7
20260906174029 23 121 0.0 6.4 0.00 0.00 0.00 54 1015.8
20260906173526 23 99 1.6 6.4 0.00 0.00 0.00 53 1016.0
20260906173048 22 0 0.0 6.4 0.00 0.00 0.00 59 1016.1
20260906172530 22 0 1.6 8.0 0.00 0.00 0.00 54 1016.1
20260906172028 22 0 3.2 8.0 0.00 0.00 0.00 53 1016.2
20260906171604 22 31 1.6 8.0 0.00 0.00 0.00 56 1016.3
20260906171027 22 109 3.2 8.0 0.00 0.00 0.00 54 1016.4
20260906170525 22 32 1.6 8.0 0.00 0.00 0.00 55 1016.5
20260906170057 21 134 1.6 8.0 0.00 0.00 0.00 56 1016.4
20260906165526 21 0 1.6 8.0 0.00 0.00 0.00 56 1016.5
20260906165029 21 230 3.2 8.0 0.00 0.00 0.00 59 1016.4
20260906164554 21 0 1.6 8.0 0.00 0.00 0.00 59 1016.4
20260906164028 20 0 1.6 11.3 0.00 0.00 0.00 61 1016.6
20260906163525 20 177 3.2 11.3 0.00 0.00 0.00 59 1016.7
20260906163049 20 195 4.8 11.3 0.00 0.00 0.00 58 1016.9
20260906162524 20 160 3.2 8.0 0.00 0.00 0.00 59 1016.7
20260906162025 20 238 1.6 8.0 0.00 0.00 0.00 59 1016.9
20260906161609 20 205 4.8 8.0 0.00 0.00 0.00 59 1016.8
20260906161023 20 149 1.6 6.4 0.00 0.00 0.00 60 1016.9
20260906160525 20 113 1.6 6.4 0.00 0.00 0.00 59 1016.9
20260906160050 20 0 0.0 6.4 0.00 0.00 0.00 60 1017.0
20260906155528 20 58 1.6 6.4 0.00 0.00 0.00 60 1016.9
20260906155024 20 101 0.0 4.8 0.00 0.00 0.00 62 1016.8
20260906154548 19 101 1.6 4.8 0.00 0.00 0.00 60 1016.9
20260906154025 19 0 0.0 4.8 0.00 0.00 0.00 62 1017.2
20260906153525 19 165 0.0 4.8 0.00 0.00 0.00 61 1017.1
20260906153105 19 147 1.6 4.8 0.00 0.00 0.00 63 1017.0
20260906152526 18 182 0.0 3.2 0.00 0.00 0.00 63 1017.0
20260906152024 18 0 0.0 3.2 0.00 0.00 0.00 64 1017.1
20260906151544 17 0 0.0 3.2 0.00 0.00 0.00 67 1017.2
20260906151024 17 0 0.0 4.8 0.00 0.00 0.00 66 1017.3
20260906150524 17 207 0.0 4.8 0.00 0.00 0.00 68 1017.3
20260906150051 17 0 0.0 4.8 0.00 0.00 0.00 69 1017.4
20260906145525 16 196 1.6 4.8 0.00 0.00 0.00 70 1017.6
20260906145025 16 187 1.6 6.4 0.00 0.00 0.00 70 1017.6
20260906144550 16 207 1.6 6.4 0.00 0.00 0.00 70 1017.6
20260906144024 16 231 1.6 6.4 0.00 0.00 0.00 70 1017.6
20260906143524 16 182 1.6 6.4 0.00 0.00 0.00 72 1017.7
20260906143045 15 199 3.2 6.4 0.00 0.00 0.00 70 1017.7
20260906142523 15 217 1.6 3.2 0.00 0.00 0.00 72 1017.6
20260906142025 15 217 1.6 4.8 0.00 0.00 0.00 72 1017.5
20260906141558 15 217 1.6 4.8 0.00 0.00 0.00 73 1017.4
20260906141024 15 217 1.6 3.2 0.00 0.00 0.00 74 1017.5
20260906140523 14 218 0.0 3.2 0.00 0.00 0.00 76 1017.5
20260906140042 13 0 0.0 3.2 0.00 0.00 0.00 78 1017.4
20260906135525 13 0 0.0 3.2 0.00 0.00 0.00 78 1017.5
20260906135024 13 218 0.0 3.2 0.00 0.00 0.00 79 1017.4
20260906134548 12 0 0.0 0.0 0.00 0.00 0.00 81 1017.4
20260906134024 12 0 0.0 3.2 0.00 0.00 0.00 82 1017.6
20260906133525 12 0 0.0 3.2 0.00 0.00 0.00 82 1017.5
20260906133051 11 218 0.0 3.2 0.00 0.00 0.00 81 1017.4
20260906132526 11 0 0.0 1.6 0.00 0.00 0.00 81 1017.5
20260906132027 11 0 0.0 1.6 0.00 0.00 0.00 80 1017.5
20260906131605 11 0 0.0 3.2 0.00 0.00 0.00 80 1017.4
20260906131025 11 0 0.0 3.2 0.00 0.00 0.00 80 1017.2
20260906130525 11 0 0.0 3.2 0.00 0.00 0.00 79 1017.2
20260906130054 12 0 0.0 0.0 0.00 0.00 0.00 79 1017.3
20260906125524 12 0 0.0 4.8 0.00 0.00 0.00 78 1017.4
20260906125027 12 0 0.0 4.8 0.00 0.00 0.00 78 1017.4
20260906124551 12 215 1.6 4.8 0.00 0.00 0.00 78 1017.5
20260906124027 12 215 1.6 4.8 0.00 0.00 0.00 78 1017.2
20260906123524 12 215 1.6 4.8 0.00 0.00 0.00 78 1017.3
20260906123045 12 216 0.0 3.2 0.00 0.00 0.00 77 1017.1
20260906122528 12 0 0.0 3.2 0.00 0.00 0.00 77 1017.1
20260906122025 12 216 1.6 3.2 0.00 0.00 0.00 77 1017.1
20260906121544 12 216 0.0 3.2 0.00 0.00 0.00 76 1017.1
20260906121029 12 0 0.0 3.2 0.00 0.00 0.00 76 1017.1
20260906120527 13 0 0.0 3.2 0.00 0.00 0.00 75 1017.0
20260906120051 13 215 0.0 3.2 0.00 0.00 0.00 75 1017.0
20260906115527 13 0 0.0 0.0 0.00 0.00 0.00 75 1017.1
20260906115025 13 0 0.0 0.0 0.00 0.00 0.00 74 1017.0
20260906114550 13 0 0.0 0.0 0.00 0.00 0.00 74 1017.2
20260906114027 13 0 0.0 0.0 0.00 0.00 0.00 73 1016.9
20260906113527 13 0 0.0 0.0 0.00 0.00 0.00 72 1017.0
20260906113047 13 0 0.0 0.0 0.00 0.00 0.00 72 1017.1
20260906112528 13 0 0.0 0.0 0.00 0.00 0.00 72 1017.1
20260906112025 13 0 0.0 0.0 0.00 0.00 0.00 71 1017.0
20260906111546 14 0 0.0 0.0 0.00 0.00 0.00 70 1016.9
20260906111027 14 0 0.0 0.0 0.00 0.00 0.00 70 1017.0
20260906110527 14 0 0.0 0.0 0.00 0.00 0.00 69 1016.9
20260906110049 14 0 0.0 3.2 0.00 0.00 0.00 69 1017.1
20260906105524 15 0 0.0 4.8 0.00 0.00 0.00 69 1017.2
20260906105024 15 0 1.6 4.8 0.00 0.00 0.00 69 1017.0
20260906104550 15 242 3.2 4.8 0.00 0.00 0.00 68 1017.0
20260906104028 15 0 0.0 4.8 0.00 0.00 0.00 67 1016.8
20260906103525 15 0 0.0 4.8 0.00 0.00 0.00 67 1016.9
20260906103048 15 211 1.6 6.4 0.00 0.00 0.00 67 1016.9
20260906102528 15 206 1.6 6.4 0.00 0.00 0.00 67 1016.9
20260906102027 15 211 1.6 4.8 0.00 0.00 0.00 67 1016.7
20260906101544 15 0 1.6 4.8 0.00 0.00 0.00 65 1016.7
20260906101025 15 129 1.6 4.8 0.00 0.00 0.00 65 1016.7
20260906100528 15 128 1.6 4.8 0.00 0.00 0.00 66 1016.6
20260906100051 15 124 1.6 4.8 0.00 0.00 0.00 67 1016.4
20260906095527 15 0 0.0 4.8 0.00 0.00 0.00 66 1016.4
20260906095027 15 328 0.0 4.8 0.00 0.00 0.00 67 1016.4
20260906094556 15 146 0.0 4.8 0.00 0.00 0.00 67 1016.4
20260906094028 15 150 1.6 4.8 0.00 0.00 0.00 67 1016.4
20260906093529 15 0 0.0 6.4 0.00 0.00 0.00 68 1016.4
20260906093048 15 0 0.0 6.4 0.00 0.00 0.00 68 1016.4
20260906092531 15 0 1.6 4.8 0.00 0.00 0.00 67 1016.3
20260906092024 15 339 0.0 3.2 0.00 0.00 0.00 67 1016.3
20260906091551 15 0 0.0 6.4 0.00 0.00 0.00 68 1016.4
20260906091027 15 0 1.6 6.4 0.00 0.00 0.00 68 1016.5
20260906090525 15 210 3.2 6.4 0.00 0.00 0.00 68 1016.7
20260906090053 15 209 3.2 6.4 0.00 0.00 0.00 69 1016.7
20260906085528 15 204 1.6 6.4 0.00 0.00 0.00 68 1016.6
20260906085025 15 199 3.2 6.4 0.00 0.00 0.00 65 1016.5
20260906084545 16 162 1.6 4.8 0.00 0.00 0.00 64 1016.4
20260906084034 15 0 1.6 4.8 0.00 0.00 0.00 65 1016.4
20260906083527 15 122 1.6 6.4 0.00 0.00 0.00 66 1016.1
20260906083053 15 134 0.0 6.4 0.00 0.00 0.00 66 1016.0
20260906082528 15 203 0.0 4.8 0.00 0.00 0.00 66 1016.0
20260906082025 15 134 0.0 3.2 0.00 0.00 0.00 66 1016.0
20260906081547 15 133 0.0 3.2 0.00 0.00 0.00 64 1016.0
20260906081027 15 0 1.6 6.4 0.00 0.00 0.00 64 1016.1
20260906080526 16 156 1.6 6.4 0.00 0.00 0.00 63 1016.0
20260906080048 16 156 3.2 6.4 0.00 0.00 0.00 62 1016.0
20260906075525 16 198 3.2 4.8 0.00 0.00 0.00 62 1016.0
20260906075024 16 188 0.0 3.2 0.00 0.00 0.00 62 1016.2
20260906074546 16 0 0.0 3.2 0.00 0.00 0.00 62 1015.9
20260906074027 16 193 0.0 4.8 0.00 0.00 0.00 63 1016.1
20260906073528 16 0 0.0 6.4 0.00 0.00 0.00 62 1016.1
20260906073052 16 234 1.6 9.7 0.00 0.00 0.00 61 1016.1
20260906072531 16 236 3.2 9.7 0.00 0.00 0.00 60 1016.1
20260906072027 16 260 0.0 6.4 0.00 0.00 0.00 60 1016.0
20260906071548 16 261 1.6 6.4 0.00 0.00 0.00 60 1016.1
20260906071025 16 221 1.6 4.8 0.00 0.00 0.00 61 1016.2
20260906070528 16 206 0.0 4.8 0.00 0.00 0.00 60 1016.0
20260906070045 16 205 1.6 4.8 0.00 0.00 0.00 59 1015.9
20260906065525 16 196 1.6 4.8 0.00 0.00 0.00 59 1015.8
20260906065025 17 197 1.6 4.8 0.00 0.00 0.00 59 1015.8
20260906064549 17 184 1.6 6.4 0.00 0.00 0.00 58 1016.0
20260906064023 17 234 1.6 6.4 0.00 0.00 0.00 58 1016.0
20260906063523 17 221 1.6 4.8 0.00 0.00 0.00 57 1015.8
20260906063050 17 229 0.0 3.2 0.00 0.00 0.00 57 1015.8
20260906062527 17 0 1.6 4.8 0.00 0.00 0.00 56 1015.8
20260906062024 17 207 0.0 4.8 0.00 0.00 0.00 56 1015.8
20260906061549 17 207 0.0 8.0 0.00 0.00 0.00 55 1015.8
20260906061025 18 0 0.0 8.0 0.00 0.00 0.00 55 1016.1
20260906060524 18 138 0.0 4.8 0.00 0.00 0.00 54 1015.8
20260906060054 18 143 0.0 4.8 0.00 0.00 0.00 53 1015.8
20260906055523 19 143 1.6 4.8 0.00 0.00 0.00 51 1015.8
20260906055024 19 340 0.0 8.0 0.00 0.00 0.00 51 1015.7
20260906054546 20 0 3.2 8.0 0.00 0.00 0.00 50 1015.7
20260906054025 20 337 1.6 14.5 0.00 0.00 0.00 50 1015.8
20260906053524 20 335 3.2 14.5 0.00 0.00 0.00 50 1015.7
20260906053043 19 293 4.8 11.3 0.00 0.00 0.00 50 1015.7
20260906052524 19 337 3.2 11.3 0.00 0.00 0.00 51 1015.7
20260906052026 19 264 3.2 9.7 0.00 0.00 0.00 51 1015.7
20260906051543 18 360 0.0 4.8 0.00 0.00 0.00 51 1015.7
20260906051025 18 106 0.0 8.0 0.00 0.00 0.00 51 1015.8
20260906050527 18 359 0.0 8.0 0.00 0.00 0.00 51 1015.8
20260906050045 18 342 1.6 6.4 0.00 0.00 0.00 52 1015.8
20260906045524 18 174 1.6 6.4 0.00 0.00 0.00 51 1015.9
20260906045024 18 152 3.2 6.4 0.00 0.00 0.00 52 1015.8
20260906044550 18 160 3.2 8.0 0.00 0.00 0.00 52 1015.7
20260906044024 19 174 3.2 8.0 0.00 0.00 0.00 53 1015.7
20260906043529 19 153 3.2 6.4 0.00 0.00 0.00 51 1015.8
20260906043044 18 68 1.6 6.4 0.00 0.00 0.00 52 1015.7
20260906042525 19 0 0.0 4.8 0.00 0.00 0.00 52 1015.6
20260906042025 19 191 0.0 3.2 0.00 0.00 0.00 51 1015.5
20260906041544 19 0 0.0 4.8 0.00 0.00 0.00 51 1015.6
20260906041023 20 166 1.6 9.7 0.00 0.00 0.00 50 1015.5
20260906040523 20 166 4.8 9.7 0.00 0.00 0.00 50 1015.6
20260906040048 20 148 3.2 4.8 0.00 0.00 0.00 49 1015.5
20260906035526 20 0 0.0 4.8 0.00 0.00 0.00 48 1015.4
20260906035025 19 183 1.6 4.8 0.00 0.00 0.00 48 1015.4
20260906034558 20 259 0.0 6.4 0.00 0.00 0.00 50 1015.5
20260906034024 20 262 0.0 6.4 0.00 0.00 0.00 49 1015.5
20260906033524 20 164 3.2 6.4 0.00 0.00 0.00 47 1015.5
20260906033045 20 0 0.0 4.8 0.00 0.00 0.00 47 1015.4
20260906032527 21 0 1.6 4.8 0.00 0.00 0.00 47 1015.4
20260906032024 21 124 1.6 4.8 0.00 0.00 0.00 47 1015.4
20260906031553 21 124 1.6 4.8 0.00 0.00 0.00 45 1015.2
20260906031027 21 0 0.0 6.4 0.00 0.00 0.00 44 1015.1
20260906030527 21 125 0.0 8.0 0.00 0.00 0.00 44 1015.1
20260906030052 21 101 3.2 8.0 0.00 0.00 0.00 44 1015.0
20260906025528 21 115 0.0 4.8 0.00 0.00 0.00 44 1014.8
20260906025027 21 110 1.6 4.8 0.00 0.00 0.00 45 1014.7
20260906024547 21 219 1.6 6.4 0.00 0.00 0.00 45 1014.7
20260906024027 21 0 0.0 6.4 0.00 0.00 0.00 45 1014.5
20260906023528 21 0 1.6 6.4 0.00 0.00 0.00 45 1014.6
20260906023046 21 0 0.0 4.8 0.00 0.00 0.00 45 1014.5
20260906022523 22 238 0.0 8.0 0.00 0.00 0.00 44 1014.6
20260906022025 22 292 1.6 8.0 0.00 0.00 0.00 43 1014.6
20260906021600 22 0 1.6 4.8 0.00 0.00 0.00 43 1014.4
20260906021025 22 245 0.0 4.8 0.00 0.00 0.00 43 1014.3
20260906020527 22 178 0.0 6.4 0.00 0.00 0.00 43 1014.3
20260906020048 22 178 1.6 6.4 0.00 0.00 0.00 42 1014.5
20260906015524 22 282 1.6 6.4 0.00 0.00 0.00 42 1014.3
20260906015027 23 0 1.6 6.4 0.00 0.00 0.00 42 1014.3
20260906014549 23 239 0.0 3.2 0.00 0.00 0.00 42 1014.4
20260906014025 23 134 0.0 3.2 0.00 0.00 0.00 41 1014.4
20260906013524 23 0 0.0 3.2 0.00 0.00 0.00 41 1014.3
20260906013049 24 0 0.0 3.2 0.00 0.00 0.00 41 1014.3
20260906012529 25 0 0.0 3.2 0.00 0.00 0.00 39 1014.4
20260906012026 25 6 0.0 9.7 0.00 0.00 0.00 39 1014.3
20260906011546 25 0 1.6 9.7 0.00 0.00 0.00 39 1014.3
20260906011023 25 0 0.0 3.2 0.00 0.00 0.00 39 1014.4
20260906010525 26 358 0.0 3.2 0.00 0.00 0.00 36 1014.3
20260906010059 26 0 0.0 6.4 0.00 0.00 0.00 38 1014.3
20260906005524 26 0 0.0 8.0 0.00 0.00 0.00 37 1014.2
20260906005024 26 278 0.0 8.0 0.00 0.00 0.00 37 1014.2
20260906004611 26 0 3.2 9.7 0.00 0.00 0.00 37 1014.2
20260906004029 26 329 3.2 9.7 0.00 0.00 0.00 35 1014.3
20260906003528 26 1 3.2 9.7 0.00 0.00 0.00 35 1014.2
20260906003047 26 307 3.2 9.7 0.00 0.00 0.00 35 1014.2
20260906002528 26 349 3.2 9.7 0.00 0.00 0.00 34 1014.2
20260906002024 27 339 1.6 9.7 0.00 0.00 0.00 37 1014.2
20260906001559 27 336 4.8 9.7 0.00 0.00 0.00 35 1014.2
20260906001023 27 345 4.8 8.0 0.00 0.00 0.00 35 1014.2
20260906000527 27 320 3.2 8.0 0.00 0.00 0.00 33 1014.3
20260906000044 28 319 3.2 8.0 0.00 0.00 0.00 34 1014.3
20260905235524 28 0 3.2 8.0 0.00 0.00 0.00 34 1014.3
20260905235025 28 44 1.6 8.0 0.00 0.00 0.00 31 1014.3
20260905234552 28 331 3.2 8.0 0.00 0.00 0.00 34 1014.4
20260905234027 28 31 1.6 6.4 0.00 0.00 0.00 32 1014.4
20260905233528 28 0 1.6 4.8 0.00 0.00 0.00 30 1014.4
20260905233044 29 291 1.6 4.8 0.00 0.00 0.00 30 1014.4
20260905232530 29 0 0.0 3.2 0.00 0.00 0.00 32 1014.4
20260905232026 29 0 0.0 6.4 0.00 0.00 0.00 36 1014.4
20260905231544 28 127 0.0 6.4 0.00 0.00 0.00 28 1014.5
20260905231028 29 113 1.6 4.8 0.00 0.00 0.00 30 1014.5
20260905230524 29 0 1.6 4.8 0.00 0.00 0.00 31 1014.5
20260905230052 28 0 0.0 3.2 0.00 0.00 0.00 35 1014.6
20260905225535 28 0 0.0 4.8 0.00 0.00 0.00 28 1014.6
20260905225027 28 0 0.0 4.8 0.00 0.00 0.00 34 1014.7
20260905224543 28 308 1.6 6.4 0.00 0.00 0.00 30 1014.9
20260905224025 28 0 0.0 8.0 0.00 0.00 0.00 31 1014.9